Location: Unspecified
(47.9110°N, 14.3980°E)
Time: 06:00:46
(UTC+00:00)

Cosmos 921 Rocket - Pass Details

Date: 06 August 2020
Orbit: 572 x 631 km, 75.8° (Epoch: 23 September)

Event Time Altitude Azimuth Distance (km) Brightness Sun altitude
Rises 21:03:52 0° 339° (NNW) 2,827 8.0 -20.0°
Reaches altitude 10° 21:06:06 10° 338° (NNW) 1,913 6.7 -20.2°
Maximum altitude 21:10:20 80° 253° (WSW) 594 2.9 -20.5°
Enters shadow 21:11:08 57° 179° (S) 684 2.9 -20.6°
